THOR ABLESTAR DEB, 132

Orbit data source: Space-Track

THOR ABLESTAR DEB, 132 is space debris in LEO originally from a launch on Thu, 29 Jun 1961 UTC launched from the Air Force Eastern Test Range (AFETR). Debris objects in space refer to the collection of defunct objects orbiting the Earth. Examples of debris include non-operational satellites, rocket bodies, and fragments generated from explosions, collisions, or faulty payload assembly.

Loading next visibility...
Identifier
132, 1961-015S
Orbit
LEO
Country
Flag of USUS
Related business
Manufacturer
Unknown
Mission
Spacecraft
Bus & Motor
Unknown
Mass
Unknown
Launch date (UTC)
1961-06-29 (65 years ago)
Launch vehicle
Unknown
Launch site
Air Force Eastern Test Range (AFETR)
Object type
Payload
Rocket body
Debris
Shape & HBR
Unknown shape, 0.4 m
Radar Cross Section
Medium (>0.1 m² and <1 m²)

Expand to show TLE details & history
Last TLE update: 22 hours ago

TLE from 22 hours ago
0 THOR ABLESTAR DEB
1 00132U 61015S   26175.82801440 -.00000011  00000-0  49260-4 0  9995
2 00132  66.6611 312.9892 0075596 190.2685 169.6855 13.94774006304739
Epoch: 2026-06-24T19:52Z
TLE epoch observation values (Epoch: 2026-06-24T19:52:20.444Z)
Latitude
-0.00001°
Longitude
101.92438°
Altitude
968.256 km
Speed
7.341 km/s
True Right ascension
20h 51m 57s
True Declination
0° 00' 00"
Sunlit
Object was in full shadow at epoch
Visualization orbit readout
Latitude
Unknown
Longitude
Unknown
Altitude
Unknown
Speed
Unknown
Apparent Right ascension
Unknown
Apparent Declination
Unknown
Sunlit
N/A
Visualization observer readout
Local Sidereal Time
05:32:32
Azimuth
Unknown
Elevation
Unknown
Doppler factor
Unknown
Orbital elements
Apogee altitude
965.453 km
Perigee altitude
855.256 km
Semi-major axis
7,288.492 km
Eccentricity
0.00756
Inclination
66.6611°
RAAN
312.9892°
Arg. of periapsis
190.2685°
True anomaly
169.83918°
Mean anomaly
169.6855°
Eccentric anomaly
169.76248°
Mean motion
3.48808 °/min
Orbital period
103.21 mins
BSTAR
0.00004926
Loading maneuver chart data...
Computing Atmospheric mass density...

Documentation

Showing up to 5 results
|